This is the latest recevied weather packets stored in our database for station/object KG4AGD. If no packets are shown the sender has not sent any weather packets the latest 1 day(s).
| Time | Temp. | Humidity | Pressure | Rain* | Wind** | Luminosity | Snow |
|---|---|---|---|---|---|---|---|
| 1778042104 | 17.78° C | 83% | 1017.2 hPa | 0 mm | 2.68 m/s, 175° | - | - |
| 1778041799 | 17.78° C | 82% | 1017.2 hPa | 0 mm | 4.02 m/s, 190° | - | - |
| 1778041497 | 17.78° C | 82% | 1017.2 hPa | 0 mm | 1.79 m/s, 173° | - | - |
| 1778041195 | 17.78° C | 82% | 1017.2 hPa | 0 mm | 2.68 m/s, 204° | - | - |
| 1778040830 | 17.78° C | 82% | 1017.6 hPa | 0 mm | 2.68 m/s, 181° | - | - |
| 1778040528 | 18.33° C | 81% | 1017.6 hPa | 0 mm | 2.68 m/s, 180° | - | - |
| 1778040226 | 18.33° C | 81% | 1017.2 hPa | 0 mm | 3.58 m/s, 172° | - | - |
| 1778039924 | 18.33° C | 81% | 1017.2 hPa | 0 mm | 3.58 m/s, 150° | - | - |
| 1778039621 | 18.33° C | 81% | 1017.6 hPa | 0 mm | 2.68 m/s, 177° | - | - |
| 1778039319 | 18.33° C | 81% | 1017.6 hPa | 0 mm | 2.68 m/s, 171° | - | - |
| 1778039017 | 18.33° C | 81% | 1017.6 hPa | 0 mm | 3.13 m/s, 189° | - | - |
| 1778038715 | 18.33° C | 81% | 1017.6 hPa | 0 mm | 4.47 m/s, 190° | - | - |
| 1778038412 | 18.33° C | 81% | 1017.6 hPa | 0 mm | 3.58 m/s, 171° | - | - |
| 1778038110 | 18.33° C | 81% | 1017.6 hPa | 0 mm | 2.68 m/s, 210° | - | - |
| 1778037808 | 18.33° C | 81% | 1017.6 hPa | 0 mm | 4.02 m/s, 193° | - | - |
| 1778037506 | 18.33° C | 80% | 1017.6 hPa | 0 mm | 4.02 m/s, 171° | - | - |
| 1778037203 | 18.89° C | 80% | 1017.6 hPa | 0 mm | 1.79 m/s, 174° | - | - |
| 1778036901 | 18.89° C | 80% | 1017.6 hPa | 0 mm | 4.47 m/s, 168° | - | - |
| 1778036599 | 18.89° C | 80% | 1017.9 hPa | 0 mm | 3.13 m/s, 166° | - | - |
| 1778036296 | 18.89° C | 79% | 1017.6 hPa | 0 mm | 3.13 m/s, 183° | - | - |
| 1778035994 | 18.89° C | 79% | 1017.9 hPa | 0 mm | 3.58 m/s, 204° | - | - |
| 1778035691 | 18.89° C | 79% | 1017.6 hPa | 0 mm | 2.68 m/s, 146° | - | - |
| 1778035389 | 18.89° C | 78% | 1017.6 hPa | 0 mm | 3.58 m/s, 167° | - | - |
| 1778035087 | 19.44° C | 78% | 1017.6 hPa | 0 mm | 2.68 m/s, 163° | - | - |
| 1778034784 | 19.44° C | 78% | 1017.6 hPa | 0 mm | 3.13 m/s, 161° | - | - |
* Rain since midnight (hover to see other rain measurements)
** Current wind speed in m/s (hover to see current wind gust speed)